Home   Weather   Hampton   Past weeks

Flag for USA Past Weather in Hampton, Virginia, USA — Yesterday and Last 2 Weeks

Now
73 °F

Broken clouds.


Feels Like: 67 °F
Forecast: 72 / 79 °F
Wind: 6 mph from North

Location: Langley Air Force Base

Current Time: Sep 30, 2016 at 9:30:31 AM

Latest Report: Sep 30, 2016 at 8:58 AM


Visibility: 10 mi

Pressure: 30.09 "Hg

Humidity: 100%

Dew Point: 73 °F

Location of HamptonLocation

Past Weather in Hampton — Graph

°F

Hampton Temperature Yesterday

Maximum temperature yesterday: 77 °F (at 12:58 PM)
Minimum temperature yesterday: 71 °F (at 2:58 AM)
Average temperature yesterday: 74 °F

High & Low Weather Summary for the Past Weeks

 TemperatureHumidityPressure
High87 °F (Sep 19, 11:58 AM)100% (Sep 18, 6:03 AM)30.27 "Hg (Sep 18, 6:03 AM)
Low59 °F (Sep 26, 4:58 AM)48% (Sep 25, 1:58 PM)29.90 "Hg (Sep 27, 3:03 PM)
Average74 °F86%30.07 "Hg
* Reported Sep 15 7:58 AM — Sep 30 7:58 AM, Hampton, Weather by CustomWeather, © 2016

Note: Actual official high and low records may vary slightly from our data, if they occured in-between our weather recording intervals... More about our weather records

Advertising

Hampton Weather History for the Previous 24 Hours

Scroll right to see more
 ConditionsComfort  
Time TempWeatherWind HumidityBarometerVisibility
7:58 AM
Fri, Sep 30
72 °FScattered clouds.5 mph100%30.08 "Hg10 mi
7:03 AM72 °FFog.2 mph100%30.05 "Hg2 mi
6:58 AM72 °FFog.3 mph100%30.07 "Hg2 mi
5:58 AM72 °FFog.3 mph100%30.05 "Hg1 mi
5:03 AM72 °FFog.2 mph100%30.02 "Hg2 mi
3:58 AM72 °FPassing clouds.2 mph99%30.04 "Hg10 mi
2:58 AM73 °FOvercast.3 mph99%30.04 "Hg10 mi
1:58 AM73 °FLow clouds.3 mph99%30.04 "Hg10 mi
12:58 AM73 °FPassing clouds.2 mph98%30.04 "Hg10 mi
12:03 AM73 °FPartly cloudy.2 mph100%30.04 "Hg10 mi
11:03 PM
Thu, Sep 29
73 °FMostly cloudy.7 mph100%30.05 "Hg9 mi
10:58 PM74 °FMostly cloudy.8 mph94%30.07 "Hg9 mi
9:58 PM74 °FOvercast.9 mph91%30.08 "Hg10 mi
8:58 PM74 °FLow clouds.13 mph93%30.07 "Hg10 mi
7:58 PM73 °FLow clouds.10 mph93%30.07 "Hg10 mi
6:58 PM73 °FOvercast.14 mph91%30.06 "Hg10 mi
5:58 PM73 °FPartly sunny.18 mph90%30.06 "Hg10 mi
4:58 PM74 °FPartly sunny.22 mph89%30.04 "Hg10 mi
3:58 PM74 °FPartly sunny.17 mph91%30.05 "Hg10 mi
3:03 PM75 °FLight rain. Partly sunny.16 mph83%30.06 "Hg10 mi
2:58 PM75 °FLight rain. Broken clouds.15 mph83%30.08 "Hg10 mi
1:58 PM75 °FBroken clouds.16 mph84%30.07 "Hg10 mi
12:58 PM77 °FBroken clouds.20 mph85%30.09 "Hg10 mi
11:58 AM77 °FPartly sunny.15 mph84%30.09 "Hg10 mi
10:58 AM75 °FOvercast.12 mph92%30.09 "Hg10 mi
10:00 AM75 °FLight rain. More clouds than sun.8 mph94%30.07 "Hg7 mi
9:58 AM75 °FBroken clouds.6 mph94%30.09 "Hg9 mi
Weather by CustomWeather, © 2016

See weather overviewHow to use our weather pages